Weather History for KACP - March, 2014

Change the Weather History Date:

Monday, March 31, 2014

  Actual Average (KPOE) Record (KPOE)
Temperature  
Mean Temperature 58 °F -  
Max Temperature 76 °F 71 °F 82 °F (2012)
Min Temperature 40 °F 53 °F 37 °F (2003)
Degree Days  
Heating Degree Days 7    
Growing Degree Days 8 (Base 50)    
Moisture  
Dew Point 50 °F    
Average Humidity 78    
Maximum Humidity 97    
Minimum Humidity 46    
Precipitation  
Precipitation 0.03 in - - ()
Sea Level Pressure  
Sea Level Pressure 30.07 in    
Wind  
Wind Speed 3 mph (South)    
Max Wind Speed 16 mph    
Max Gust Speed 24 mph    
Visibility 7 miles    
Events Fog    
Averages and records for this station are not official NWS values.
T = Trace of Precipitation, MM = Missing Value Source: NWS Daily Summary

Daily Weather History Graph

Daily Weather History Graph

Search for Another Location

Airport or City:

Trip Planner

Search our weather history database for the weather conditions in past years. The results will help you decide how hot, cold, wet, or windy it might be!

Date:

Astronomy

Mar. 31, 2014 Rise Set
Actual Time 7:00 AM CDT 7:29 PM CDT
Civil Twilight 6:36 AM CDT 7:53 PM CDT
Nautical Twilight 6:08 AM CDT 8:21 PM CDT
Astronomical Twilight 5:39 AM CDT 8:50 PM CDT
Moon 7:28 AM CDT (3/31) 8:42 PM CDT (3/31)
Length of Visible Light 13h 16m
Length of Day
12h 28m
New Moon, 1% of the Moon is Illuminated
Mar 31
New Moon
Apr 7
First Quarter
Apr 15
Full
Apr 22
Last Quarter
Apr 29
New

Hourly Weather History & Observations

Time (CDT) Temp. Dew Point Humidity Pressure Visibility Wind Dir Wind Speed Gust Speed Precip Events Conditions
12:15 AM 44.2 °F 43.0 °F 95% 30.14 in 7.0 mi Calm Calm - N/A   Clear
12:35 AM 43.7 °F 42.8 °F 97% 30.14 in 7.0 mi Calm Calm - N/A   Clear
12:55 AM 43.2 °F 41.9 °F 95% 30.13 in 7.0 mi Calm Calm - N/A   Clear
1:15 AM 43.0 °F 41.9 °F 96% 30.13 in 7.0 mi Calm Calm - N/A   Clear
1:35 AM 42.6 °F 41.4 °F 95% 30.12 in 5.0 mi Calm Calm - N/A   Clear
1:55 AM 41.9 °F 40.6 °F 95% 30.12 in 7.0 mi Calm Calm - N/A   Clear
2:15 AM 41.5 °F 40.5 °F 96% 30.10 in 7.0 mi Calm Calm - N/A   Scattered Clouds
2:35 AM 41.4 °F 40.3 °F 96% 30.10 in 5.0 mi Calm Calm - N/A   Mostly Cloudy
2:55 AM 41.0 °F 39.9 °F 96% 30.09 in 1.0 mi Calm Calm - N/A   Overcast
3:15 AM 41.0 °F 40.1 °F 97% 30.09 in 0.2 mi Calm Calm - N/A Fog Fog
3:35 AM 41.2 °F 40.1 °F 96% 30.09 in 0.2 mi Calm Calm - 0.01 in Fog Fog
3:55 AM 41.9 °F 41.0 °F 97% 30.08 in 0.2 mi Calm Calm - 0.01 in Fog Fog
4:15 AM 41.5 °F 40.6 °F 97% 30.08 in 0.2 mi Calm Calm - N/A Fog Fog
4:35 AM 41.0 °F 40.1 °F 97% 30.06 in 0.8 mi Calm Calm - N/A   Overcast
4:55 AM 41.0 °F 40.1 °F 97% 30.06 in 0.2 mi Calm Calm - N/A Fog Fog
5:15 AM 41.0 °F 40.1 °F 97% 30.06 in 0.5 mi Calm Calm - N/A Fog Fog
5:35 AM 40.8 °F 39.9 °F 97% 30.07 in 5.0 mi Calm Calm - N/A   Overcast
5:55 AM 40.1 °F 39.2 °F 97% 30.07 in 2.0 mi Calm Calm - N/A   Overcast
6:15 AM 40.5 °F 39.6 °F 97% 30.06 in 0.2 mi Calm Calm - N/A Fog Fog
6:35 AM 40.8 °F 39.9 °F 97% 30.07 in 0.2 mi Calm Calm - N/A Fog Fog
6:55 AM 40.6 °F 39.9 °F 97% 30.08 in 0.2 mi Calm Calm - N/A Fog Fog
7:15 AM 40.6 °F 39.7 °F 97% 30.08 in 0.2 mi Calm Calm - N/A Fog Fog
7:35 AM 41.7 °F 41.0 °F 97% 30.09 in 0.5 mi Calm Calm - N/A Fog Fog
7:55 AM 43.7 °F 43.0 °F 97% 30.10 in 1.2 mi Calm Calm - N/A   Overcast
8:15 AM 48.4 °F 47.7 °F 97% 30.10 in 2.0 mi Calm Calm - N/A   Mostly Cloudy
8:35 AM 52.2 °F 51.3 °F 97% 30.10 in 7.0 mi ESE 3.5 mph - N/A   Clear
8:55 AM 55.2 °F 53.6 °F 94% 30.10 in 10.0 mi SE 4.6 mph - N/A   Clear
9:15 AM 58.1 °F 54.5 °F 88% 30.10 in 10.0 mi SE 6.9 mph - N/A   Clear
9:35 AM 59.5 °F 54.9 °F 84% 30.10 in 10.0 mi SE 8.1 mph - N/A   Clear
9:55 AM 62.2 °F 54.3 °F 75% 30.10 in 10.0 mi SSE 8.1 mph - N/A   Clear
10:10 AM 64.4 °F 54.1 °F 69% 30.10 in 10.0 mi SSE 9.2 mph - N/A   Clear
10:35 AM 66.2 °F 54.9 °F 67% 30.12 in 10.0 mi South 9.2 mph 17.3 mph N/A   Clear
10:55 AM 66.2 °F 54.7 °F 66% 30.12 in 10.0 mi South 9.2 mph - N/A   Scattered Clouds
11:15 AM 67.6 °F 54.9 °F 64% 30.11 in 10.0 mi SSW 11.5 mph 17.3 mph N/A   Scattered Clouds
11:35 AM 69.3 °F 55.4 °F 61% 30.11 in 10.0 mi South 8.1 mph - 0.01 in   Scattered Clouds
11:55 AM 69.8 °F 55.8 °F 61% 30.10 in 10.0 mi SSW 13.8 mph 17.3 mph 0.01 in   Clear
12:15 PM 71.4 °F 56.1 °F 58% 30.10 in 10.0 mi SSW 15.0 mph 19.6 mph N/A   Clear
12:35 PM 71.6 °F 55.8 °F 57% 30.09 in 10.0 mi South 10.4 mph 17.3 mph N/A   Clear
12:55 PM 71.6 °F 55.4 °F 57% 30.08 in 10.0 mi South 12.7 mph 18.4 mph N/A   Scattered Clouds
1:15 PM 73.4 °F 56.1 °F 55% 30.06 in 10.0 mi South 9.2 mph 19.6 mph N/A   Scattered Clouds
1:35 PM 75.0 °F 56.5 °F 52% 30.05 in 10.0 mi South 10.4 mph - N/A   Clear
1:55 PM 75.0 °F 55.9 °F 51% 30.05 in 10.0 mi South 10.4 mph 20.7 mph N/A   Clear
2:15 PM 75.7 °F 55.9 °F 50% 30.03 in 10.0 mi SSW 13.8 mph 21.9 mph N/A   Clear
2:35 PM 76.3 °F 55.9 °F 49% 30.03 in 10.0 mi SSW 11.5 mph 21.9 mph N/A   Clear
2:55 PM 76.1 °F 54.1 °F 46% 30.03 in 10.0 mi South 9.2 mph 20.7 mph N/A   Clear
3:15 PM 75.7 °F 55.2 °F 49% 30.03 in 10.0 mi South 10.4 mph 21.9 mph N/A   Clear
3:35 PM 75.9 °F 55.0 °F 48% 30.02 in 10.0 mi SSE 10.4 mph 20.7 mph 0.01 in   Clear
3:55 PM 75.7 °F 54.1 °F 47% 30.02 in 10.0 mi South 13.8 mph 21.9 mph 0.01 in   Clear
4:15 PM 75.2 °F 54.1 °F 48% 30.01 in 10.0 mi South 11.5 mph 24.2 mph N/A   Clear
4:35 PM 75.2 °F 54.3 °F 48% 30.01 in 10.0 mi SSW 13.8 mph 20.7 mph N/A   Scattered Clouds
4:55 PM 74.5 °F 54.0 °F 49% 30.01 in 10.0 mi South 13.8 mph 21.9 mph N/A   Scattered Clouds
5:15 PM 74.1 °F 55.4 °F 52% 30.01 in 10.0 mi South 15.0 mph 21.9 mph N/A   Clear
5:35 PM 73.0 °F 55.6 °F 54% 30.00 in 10.0 mi SSW 16.1 mph 20.7 mph N/A   Clear
5:55 PM 73.0 °F 56.7 °F 56% 30.01 in 10.0 mi South 8.1 mph 17.3 mph N/A   Clear
6:15 PM 71.8 °F 56.3 °F 58% 30.00 in 10.0 mi South 9.2 mph - N/A   Clear
6:35 PM 70.3 °F 55.9 °F 60% 30.01 in 10.0 mi South 9.2 mph - N/A   Clear
6:55 PM 69.8 °F 56.1 °F 62% 30.01 in 10.0 mi South 8.1 mph - N/A   Clear
7:10 PM 68.4 °F 56.3 °F 65% 30.02 in 10.0 mi South 4.6 mph - N/A   Clear
7:35 PM 66.7 °F 56.3 °F 69% 30.03 in 10.0 mi Calm Calm - N/A   Clear
7:55 PM 65.3 °F 56.5 °F 73% 30.04 in 10.0 mi Calm Calm - N/A   Clear
8:15 PM 64.2 °F 56.7 °F 76% 30.05 in 10.0 mi Calm Calm - N/A   Mostly Cloudy
8:35 PM 60.8 °F 56.7 °F 86% 30.06 in 10.0 mi Calm Calm - N/A   Mostly Cloudy
8:55 PM 60.1 °F 56.5 °F 88% 30.05 in 10.0 mi Calm Calm - N/A   Mostly Cloudy
9:15 PM 59.0 °F 55.9 °F 90% 30.05 in 10.0 mi Calm Calm - N/A   Scattered Clouds
9:35 PM 59.0 °F 55.6 °F 88% 30.06 in 10.0 mi Calm Calm - N/A   Clear
9:55 PM 58.1 °F 55.4 °F 91% 30.06 in 10.0 mi Calm Calm - N/A   Scattered Clouds
10:15 PM 57.4 °F 55.2 °F 92% 30.05 in 10.0 mi Calm Calm - N/A   Scattered Clouds
10:35 PM 56.8 °F 54.3 °F 91% 30.05 in 10.0 mi Calm Calm - N/A   Clear
10:55 PM 55.9 °F 54.0 °F 93% 30.05 in 10.0 mi Calm Calm - N/A   Clear
11:15 PM 54.9 °F 53.1 °F 94% 30.06 in 10.0 mi Calm Calm - N/A   Clear
11:35 PM 55.9 °F 54.5 °F 95% 30.07 in 10.0 mi Calm Calm - N/A   Scattered Clouds
11:55 PM 56.8 °F 55.4 °F 95% 30.06 in 10.0 mi ESE 4.6 mph - N/A   Mostly Cloudy